Regional Weather Roundup
Issued by NWS

Home | Current Version | Previous Version | Graphics & Text | Print | Product List | Glossary On
Versions: 1 2 3 4 5 6 7 8 9 10 11 12 13 14 15 16 17 18 19 20 21 22 23 24 25 26 27 28 29 30 31 32 33 34 35 36 37 38 39 40 41 42 43 44 45 46 47 48 49 50
000
ASUS45 KBOU 010707
RWRCO

WEATHER ROUNDUP FOR COLORADO
NATIONAL WEATHER SERVICE DENVER/BOULDER CO
100 AM MDT WED OCT 01 2014

NOTE: "FAIR" INDICATES FEW OR NO CLOUDS BELOW 12000 FEET WITH NO
SIGNIFICANT WEATHER AND/OR OBSTRUCTIONS TO VISIBILITY.

COZ001>005-013-030-031-010800-
...NORTHWEST COLORADO...

CITY           SKY/WX    TMP DP  RH WIND       PRES   REMARKS
CRAIG          CLOUDY    45  41  86 NE5       29.99F
HAYDEN         CLOUDY    43  39  87 CALM      30.00F
MEEKER         MOCLDY    43  40  89 NW3       29.99F
MOUNT WERNER   NOT AVBL
STEAMBOAT SPGS CLOUDY    40  39  99 CALM      30.02R
WALDEN         PTCLDY    36  32  87 S8        30.00F
$$

COZ006>008-011-010800-
...WEST CENTRAL VALLEYS...

CITY           SKY/WX    TMP DP  RH WIND       PRES   REMARKS
GRAND JUNCTION MOCLDY    48  43  82 SE7       29.92F
MONTROSE       PTCLDY    44  40  85 SE7       29.99S
EAGLE          MOCLDY    43  41  93 S6        30.04S
RIFLE          MOCLDY    46  41  82 S10       29.97F
DELTA          PTCLDY    47  43  85 NE6       29.96F FOG
NUCLA          CLOUDY    48  39  71 SE7       30.01S
$$

COZ017>023-064>068-010800-
...SOUTHWEST COLORADO...

CITY           SKY/WX    TMP DP  RH WIND       PRES   REMARKS
DURANGO        PTCLDY    40  37  89 N5        30.02S
CORTEZ         CLEAR     41  39  93 CALM      29.98F
PAGOSA SPRINGS PTCLDY    37  37  99 CALM      30.07S
TELLURIDE      CLOUDY   N/A N/A N/A SE5       30.11F
WOLF CREEK PAS PTCLDY    28  28 100 SW12      30.21S WCI  18
$$

COZ009-010-012-014-032>034-037-058>063-010800-
...CENTRAL COLORADO...

CITY           SKY/WX    TMP DP  RH WIND       PRES   REMARKS
ASPEN          PTCLDY    36  33  89 SW6       30.04F
BUENA VISTA    PTCLDY    37  31  78 CALM      30.04F
COPPER MTN     CLOUDY    34  28  80 SW9       30.17F WCI  26
BERTHOUD PASS  FOG       23  21  93 NW29G37   30.14S VSB 1   WCI   6
COTTONWOOD PAS PTCLDY    43  27  52 NW7G16    30.10R
GUNNISON       CLEAR     36  30  80 N3        30.08S
KREMMLING      CLOUDY    39  36  87 SE9       30.04S
LEADVILLE      PTCLDY    32  28  85 NE6       30.09F WCI  26
MONARCH PASS   FOG       30  30 100 MISG      30.26S VSB<1/4
SALIDA         PTCLDY    46  34  62 CALM      30.09S
SUNLIGHT       CLOUDY    34  34 100 CALM      30.15S
WILKERSON PASS NOT AVBL
$$

COZ069>075-010800-
...SAN LUIS VALLEY/SANGRE DE CRISTO MOUNTAINS...

CITY           SKY/WX    TMP DP  RH WIND       PRES   REMARKS
ALAMOSA        CLEAR     36  32  85 SW6       30.05S
LA VETA PASS   CLEAR     34  30  86 S9G21     30.10S WCI  26
SAGUACHE       CLEAR     36  32  87 W6        30.07S
$$

COZ035-036-038>040-010800-
...NORTHERN COLORADO FRONT RANGE...

CITY           SKY/WX    TMP DP  RH WIND       PRES   REMARKS
DENVER INTL AP MOCLDY    51  37  58 W7        29.88R
DMNS CITY PARK   N/A     51  37  58 NE1       29.89S
AURORA         PTCLDY    49  36  59 SW6       29.90R
FRONT RANGE AP CLEAR     52  39  62 W5        29.89S
ERIE MUNI ARPT PTCLDY    52  36  53 SW5       29.86F
BOULDER MUN AP PTCLDY    52  36  54 CALM      29.87S
CENTENNIAL     CLEAR     45  38  76 S6        29.90S
BROOMFIELD     PTCLDY    52  36  54 W6        29.89F
FORT COLLINS   CLEAR     52  41  66 CALM      29.88R
LONGMONT       CLEAR     49  40  70 CALM      29.88S HAZE
$$

COZ041-046-047-076>085-087-088-010800-
...PIKES PEAK/PALMER DIVIDE AND SOUTHERN FOOTHILLS...

CITY           SKY/WX    TMP DP  RH WIND       PRES   REMARKS
COLO. SPRINGS  CLEAR     54  31  41 NW5       29.93R
A. F. ACADEMY  CLEAR     47  30  51 SE3       29.94S
ELLICOTT       NOT AVBL
FALCON         CLEAR     49  28  44 NW9       29.96S
FORT CARSON    CLEAR     47  35  62 N3        29.90S
LIMON          CLEAR     44  40  85 CALM      29.89R
MONUMENT HILL  CLEAR     41  32  70 SW9       29.95S
TRINIDAD       CLEAR     48  35  60 SW8       29.91R
$$

COZ042>045-048>051-090-091-010800-
...NORTHEAST COLORADO...

CITY           SKY/WX    TMP DP  RH WIND       PRES   REMARKS
GREELEY ARPT   CLEAR     48  39  71 S3        29.86S
AKRON          MOCLDY    52  43  71 W8        29.85R
BURLINGTON     MOCLDY    54  45  71 W5        29.81F
WRAY           MOCLDY    54  48  82 NW6       29.81R
STERLING       PTCLDY    59  45  58 NW10      29.81S
HOLYOKE        MOCLDY    55  48  76 W6        29.80S
FORT MORGAN    PTCLDY    51  40  65 NW10      29.85S
$$

COZ086-089-092>099-010800-
...SOUTHEAST COLORADO...

CITY           SKY/WX    TMP DP  RH WIND       PRES   REMARKS
PUEBLO         CLEAR     54  34  46 CALM      29.86R
LA JUNTA       CLEAR     54  37  52 W13       29.81S
LAMAR          PTCLDY    50  46  86 CALM      29.78R
SPRINGFIELD      N/A     48  41  76 NW12      29.82R
$$


USA.gov is the U.S. government's official web portal to all federal, state and local government web resources and services.